Marrakech, Morocco

9:42 AM WEST on March 27, 2017 (GMT +0100)
Marrakech

Weather History for GMMX - September, 2013

Change the Weather History Date:

Saturday, September 14, 2013

  Actual Average Record
Temperature  
Mean Temperature 74 °F -  
Max Temperature 82 °F 85 °F 102 °F (2003)
Min Temperature 65 °F 61 °F 59 °F (1996)
Cooling Degree Days 8    
Growing Degree Days 24 (Base 50)    
Moisture  
Dew Point 61 °F    
Average Humidity 68    
Maximum Humidity 88    
Minimum Humidity 35    
Precipitation  
Precipitation 0.00 in 0.02 in - ()
Sea Level Pressure  
Sea Level Pressure 30.08 in    
Wind  
Wind Speed 6 mph ()    
Max Wind Speed 17 mph    
Max Gust Speed -    
Visibility 6.1 miles    
Events      
Averages and records for this station are not official NWS values.
T = Trace of Precipitation, MM = Missing Value Source: Averaged Metar Reports

Daily Weather History Graph

Daily Weather History Graph

Search for Another Location

Airport or City:

Trip Planner

Search our weather history database for the weather conditions in past years. The results will help you decide how hot, cold, wet, or windy it might be!

Date:

Astronomy

Sep. 14, 2013 Rise Set
Actual Time 7:15 AM WEST 7:39 PM WEST
Civil Twilight 6:51 AM WEST 8:03 PM WEST
Nautical Twilight 6:22 AM WEST 8:32 PM WEST
Astronomical Twilight 5:53 AM WEST 9:01 PM WEST
Moon 3:55 PM WEST (9/14) 1:48 AM WEST (9/14)
Length of Visible Light 13h 12m
Length of Day
12h 23m
Waxing Gibbous, 70% of the Moon is Illuminated
Sep 14
Waxing Gibbous
Sep 19
Full
Sep 27
Last Quarter
Oct 5
New
Oct 12
First Quarter

Hourly Weather History & Observations

Time (WEST) Temp. Heat Index Dew Point Humidity Pressure Visibility Wind Dir Wind Speed Gust Speed Precip Events Conditions
12:00 AM 69.8 °F - 62.6 °F 78% 30.15 in 6.2 mi WSW 6.9 mph - N/A   Mostly Cloudy
12:30 AM 68.0 °F - 62.6 °F 83% 30.12 in 6.2 mi West 6.9 mph - N/A   Mostly Cloudy
1:00 AM 68 °F - 62 °F 76% 30.09 in 6 mi West 6.9 mph - -   Partly Cloudy
1:00 AM 68.0 °F - 62.6 °F 83% 30.12 in 6.2 mi West 6.9 mph - N/A   Scattered Clouds
1:30 AM 68.0 °F - 62.6 °F 83% 30.12 in 6.2 mi West 8.1 mph - N/A   Scattered Clouds
2:00 AM 68.0 °F - 62.6 °F 83% 30.12 in 6.2 mi NW 4.6 mph - N/A   Scattered Clouds
2:30 AM 68.0 °F - 62.6 °F 83% 30.09 in 6.2 mi West 3.5 mph - N/A   Scattered Clouds
3:00 AM 68.0 °F - 62.6 °F 83% 30.09 in 6.2 mi West 3.5 mph - N/A   Scattered Clouds
3:30 AM 68.0 °F - 62.6 °F 83% 30.06 in 6.2 mi SW 4.6 mph - N/A   Scattered Clouds
4:00 AM 67 °F - 63 °F 83% 30.04 in 6 mi SW 6.9 mph - -   Partly Cloudy
4:00 AM 68.0 °F - 62.6 °F 83% 30.06 in 6.2 mi SW 6.9 mph - N/A   Scattered Clouds
4:30 AM 66.2 °F - 62.6 °F 88% 30.06 in 6.2 mi SW 5.8 mph - N/A   Scattered Clouds
5:00 AM 66.2 °F - 62.6 °F 88% 30.06 in 6.2 mi WSW 4.6 mph - N/A   Scattered Clouds
5:30 AM 66.2 °F - 62.6 °F 88% 30.09 in 6.2 mi West 6.9 mph - N/A   Scattered Clouds
6:00 AM 66.2 °F - 62.6 °F 88% 30.09 in 6.2 mi West 10.4 mph - N/A   Scattered Clouds
6:30 AM 66.2 °F - 62.6 °F 88% 30.09 in 6.2 mi West 6.9 mph - N/A   Mostly Cloudy
7:00 AM 66 °F - 62 °F 85% 30.06 in 6 mi WSW 8.1 mph - -   Mostly Cloudy
7:00 AM 66.2 °F - 62.6 °F 88% 30.09 in 6.2 mi WSW 8.1 mph - N/A   Mostly Cloudy
7:30 AM 66.2 °F - 62.6 °F 88% 30.09 in 6.2 mi WSW 6.9 mph - N/A   Overcast
8:00 AM 66.2 °F - 62.6 °F 88% 30.09 in 6.2 mi SSW 3.5 mph - N/A   Scattered Clouds
8:30 AM 66.2 °F - 62.6 °F 88% 30.09 in 6.2 mi SSW 4.6 mph - N/A   Scattered Clouds
9:00 AM 66.2 °F - 62.6 °F 88% 30.09 in 6.2 mi Variable 1.2 mph - N/A   Scattered Clouds
9:30 AM 68.0 °F - 62.6 °F 83% 30.09 in 6.2 mi Variable 1.2 mph - N/A   Scattered Clouds
10:00 AM 70 °F - 63 °F 72% 30.05 in 6 mi West 4.6 mph - -   Mostly Cloudy
10:00 AM 69.8 °F - 62.6 °F 78% 30.09 in 6.2 mi West 3.5 mph - N/A   Scattered Clouds
10:30 AM 71.6 °F - 62.6 °F 73% 30.09 in 6.2 mi NW 3.5 mph - N/A   Scattered Clouds
11:00 AM 73.4 °F - 62.6 °F 69% 30.09 in 6.2 mi West 5.8 mph - N/A   Scattered Clouds
11:30 AM 73.4 °F - 62.6 °F 69% 30.09 in 6.2 mi Variable 3.5 mph - N/A   Scattered Clouds
12:00 PM 77.0 °F - 62.6 °F 61% 30.09 in 6.2 mi Variable 3.5 mph - N/A   Scattered Clouds
12:30 PM 77.0 °F - 62.6 °F 61% 30.12 in 6.2 mi WNW 4.6 mph - N/A   Scattered Clouds
1:00 PM 79 °F - 61 °F 44% 30.02 in 6 mi NNW 4.6 mph - -   Mostly Cloudy
1:00 PM 78.8 °F - 60.8 °F 54% 30.09 in 6.2 mi NNW 4.6 mph - N/A   Scattered Clouds
1:30 PM 78.8 °F - 60.8 °F 54% 30.09 in 0.7 mi WNW 9.2 mph - N/A   Scattered Clouds
2:00 PM 78.8 °F - 60.8 °F 54% 30.06 in 6.2 mi Variable 5.8 mph - N/A   Scattered Clouds
2:30 PM 80.6 °F 81.5 °F 60.8 °F 51% 30.06 in 6.2 mi Variable 4.6 mph - N/A   Scattered Clouds
3:00 PM 80.6 °F 81.5 °F 60.8 °F 51% 30.04 in 6.2 mi Variable 5.8 mph - N/A   Scattered Clouds
3:30 PM 82.4 °F 82.5 °F 59.0 °F 45% 30.04 in 6.2 mi NW 8.1 mph - N/A   Scattered Clouds
4:00 PM 82 °F - 59 °F 35% 29.94 in 6 mi NW 9.2 mph - -   Mostly Cloudy
4:00 PM 82.4 °F 82.5 °F 59.0 °F 45% 30.04 in 6.2 mi WNW 10.4 mph - N/A   Scattered Clouds
4:30 PM 82.4 °F 82.5 °F 59.0 °F 45% 30.04 in 6.2 mi NW 9.2 mph - N/A   Scattered Clouds
5:00 PM 82.4 °F 82.5 °F 59.0 °F 45% 30.01 in 6.2 mi WNW 10.4 mph - N/A   Scattered Clouds
5:30 PM 80.6 °F 80.8 °F 57.2 °F 45% 30.04 in 6.2 mi WNW 12.7 mph - N/A   Scattered Clouds
6:00 PM 80.6 °F 80.8 °F 57.2 °F 45% 30.04 in 6.2 mi WNW 13.8 mph - N/A   Scattered Clouds
6:30 PM 80.6 °F 81.1 °F 59.0 °F 48% 30.04 in 6.2 mi WNW 13.8 mph - N/A   Scattered Clouds
7:00 PM 78 °F - 58 °F 40% 29.98 in 6 mi WNW 15.0 mph - -   Mostly Cloudy
7:00 PM 78.8 °F - 59.0 °F 51% 30.06 in 6.2 mi WNW 15.0 mph - N/A   Mostly Cloudy
7:30 PM 77.0 °F - 59.0 °F 54% 30.06 in 6.2 mi WNW 13.8 mph - N/A   Mostly Cloudy
8:00 PM 75.2 °F - 59.0 °F 57% 30.06 in 6.2 mi West 17.3 mph - N/A   Mostly Cloudy
8:30 PM 73.4 °F - 59.0 °F 61% 30.09 in 6.2 mi WNW 13.8 mph - N/A   Scattered Clouds
9:00 PM 73.4 °F - 59.0 °F 61% 30.12 in 6.2 mi NW 11.5 mph - N/A   Scattered Clouds
9:30 PM 71.6 °F - 60.8 °F 69% 30.12 in 6.2 mi NNW 10.4 mph - N/A   Scattered Clouds
10:00 PM 71 °F - 60 °F 60% 30.09 in 6 mi NNW 6.9 mph - -   Mostly Cloudy
10:00 PM 71.6 °F - 60.8 °F 69% 30.15 in 6.2 mi NNW 6.9 mph - N/A   Scattered Clouds
10:30 PM 71.6 °F - 60.8 °F 69% 30.15 in 6.2 mi NNW 4.6 mph - N/A   Scattered Clouds
11:00 PM 69.8 °F - 60.8 °F 73% 30.15 in 6.2 mi NNE 3.5 mph - N/A   Scattered Clouds
11:30 PM 71.6 °F - 60.8 °F 69% 30.12 in 6.2 mi North 3.5 mph - N/A   Scattered Clouds